NOAA 16 DEB, 41299

Orbit data source: Space-Track

NOAA 16 DEB, 41299 is space debris in SSO originally from a launch on Thu, 21 Sep 2000 UTC launched from the Air Force Western Test Range (AFWTR). Debris objects in space refer to the collection of defunct objects orbiting the Earth. Examples of debris include non-operational satellites, rocket bodies, and fragments generated from explosions, collisions, or faulty payload assembly.

Loading next visibility...
Identifier
41299, 2000-055HB
Orbit
SSO
Country
Flag of USUS
Related business
Manufacturer
Unknown
Mission
Spacecraft
Bus & Motor
Unknown
Mass
Unknown
Launch date (UTC)
2000-09-21 (26 years ago)
Launch vehicle
Unknown
Launch site
Air Force Western Test Range (AFWTR)
Object type
Payload
Rocket body
Debris
Shape & HBR
Unknown shape, 0.1 m
Radar Cross Section
Medium (>0.1 m² and <1 m²)

Expand to show TLE details & history
Last TLE update: 4 days ago

TLE from 4 days ago
0 NOAA 16 DEB
1 41299U 00055HB  26169.60066480  .00002034  00000-0  93616-3 0  9996
2 41299  98.6819 219.8419 0047531  96.0566 264.6031 14.21605672539502
Epoch: 2026-06-18T14:24Z
TLE epoch observation values (Epoch: 2026-06-18T14:24:57.438Z)
Latitude
0.00001°
Longitude
96.76091°
Altitude
826.225 km
Speed
7.438 km/s
True Right ascension
14h 39m 22s
True Declination
0° 00' 00"
Sunlit
Object was in full shadow at epoch
Visualization orbit readout
Latitude
Unknown
Longitude
Unknown
Altitude
Unknown
Speed
Unknown
Apparent Right ascension
Unknown
Apparent Declination
Unknown
Sunlit
N/A
Visualization observer readout
Local Sidereal Time
20:00:52
Azimuth
Unknown
Elevation
Unknown
Doppler factor
Unknown
Orbital elements
Apogee altitude
851.282 km
Perigee altitude
782.883 km
Semi-major axis
7,195.22 km
Eccentricity
0.00475
Inclination
98.6819°
RAAN
219.8419°
Arg. of periapsis
96.0566°
True anomaly
264.06116°
Mean anomaly
264.6031°
Eccentric anomaly
264.3321°
Mean motion
3.55613 °/min
Orbital period
101.23 mins
BSTAR
0.00093616
Loading maneuver chart data...
Computing Atmospheric mass density...

Documentation

Showing up to 5 results
|